Location: Moscow
(55.7500°N, 37.5830°E)
Time: 20:15:32
(UTC+03:00)

SR - All Passes

Search period start: 06 December 2021 00:00
Search period end: 16 December 2021 00:00
Orbit: 583 x 871 km, 66.7° (Epoch: 05 December)

Date Brightness Start Highest point End Pass type
(mag) Time Alt. Az. Time Alt. Az. Time Alt. Az.
06 Dec - 01:04:10 10° WSW 01:08:31 56° NW 01:12:44 10° NE night (unlit)
06 Dec - 02:47:54 10° WNW 02:51:20 22° NNW 02:54:45 10° NE visible
06 Dec - 04:31:28 10° NW 04:34:42 20° N 04:37:57 10° ENE visible
06 Dec - 06:13:39 10° NW 06:17:43 41° NE 06:21:53 10° ESE visible
06 Dec - 07:55:41 10° NW 07:59:48 46° SW 08:04:04 10° SSE visible
06 Dec - 22:34:07 10° SSE 22:37:07 18° ESE 22:40:02 10° ENE night (unlit)
07 Dec - 00:14:07 10° SW 00:18:35 90° ESE 00:22:52 10° NE night (unlit)
07 Dec - 01:57:18 10° W 02:01:05 28° NNW 02:04:48 10° NE night (unlit)
07 Dec - 03:41:13 10° NW 03:44:21 19° N 03:47:28 10° NE visible
07 Dec - 05:23:48 10° NW 05:27:35 29° NNE 05:31:25 10° E visible
07 Dec - 07:05:43 10° NW 07:10:01 81° SW 07:14:28 10° SE visible
07 Dec - 08:48:46 10° WNW 08:51:24 16° WSW 08:54:04 10° SSW daylight
07 Dec - 23:24:27 10° SSW 23:28:46 52° SE 23:32:57 10° NE night (unlit)
08 Dec - 01:06:48 10° WSW 01:10:55 38° NNW 01:14:56 10° NE night (unlit)
08 Dec - 02:50:47 10° WNW 02:54:00 20° N 02:57:11 10° NE visible
08 Dec - 04:33:52 10° NW 04:37:20 23° NNE 04:40:50 10° ENE visible
08 Dec - 06:15:51 10° NW 06:20:07 61° NE 06:24:29 10° ESE visible
08 Dec - 07:58:10 10° WNW 08:01:52 28° WSW 08:05:40 10° S visible
08 Dec - 22:35:13 10° S 22:39:06 29° ESE 22:42:49 10° ENE night (unlit)
09 Dec - 00:16:31 10° WSW 00:20:52 58° NW 00:25:06 10° NE night (unlit)
09 Dec - 02:00:12 10° WNW 02:03:40 23° NNW 02:07:06 10° NE night (unlit)
09 Dec - 03:43:49 10° NW 03:47:01 20° N 03:50:15 10° ENE visible
09 Dec - 05:26:01 10° NW 05:30:04 40° NNE 05:34:13 10° ESE visible
09 Dec - 07:08:02 10° NW 07:12:11 49° SW 07:16:30 10° SSE visible
09 Dec - 21:46:43 10° SSE 21:49:32 17° ESE 21:52:17 10° ENE night (unlit)
09 Dec - 23:26:31 10° SW 23:30:57 85° SE 23:35:15 10° NE night (unlit)
10 Dec - 01:09:37 10° W 01:13:25 29° NNW 01:17:10 10° NE night (unlit)
10 Dec - 02:53:33 10° NW 02:56:39 19° N 02:59:47 10° NE visible
10 Dec - 04:36:10 10° NW 04:39:55 29° NNE 04:43:44 10° E visible
10 Dec - 06:18:05 10° NW 06:22:23 86° SW 06:26:52 10° SE visible
10 Dec - 08:01:01 10° WNW 08:03:49 17° WSW 08:06:42 10° SSW visible
10 Dec - 22:36:52 10° SSW 22:41:09 49° SE 22:45:18 10° NE night (unlit)
11 Dec - 00:19:08 10° WSW 00:23:15 40° NNW 00:27:18 10° NE night (unlit)
11 Dec - 02:03:05 10° WNW 02:06:18 20° N 02:09:31 10° NE night (unlit)
11 Dec - 03:46:14 10° NW 03:49:40 23° NNE 03:53:09 10° ENE visible
11 Dec - 05:28:13 10° NW 05:32:28 58° NE 05:36:51 10° ESE visible
11 Dec - 07:10:29 10° WNW 07:14:16 30° WSW 07:18:10 10° S visible
11 Dec - 21:47:43 10° S 21:51:29 27° ESE 21:55:08 10° ENE night (unlit)
11 Dec - 23:28:52 10° WSW 23:33:14 62° NW 23:37:28 10° NE night (unlit)
12 Dec - 01:12:30 10° WNW 01:15:59 23° NNW 01:19:27 10° NE night (unlit)
12 Dec - 02:56:09 10° NW 02:59:21 20° N 03:02:34 10° ENE visible
12 Dec - 04:38:23 10° NW 04:42:24 38° NNE 04:46:33 10° ESE visible
12 Dec - 06:20:23 10° NW 06:24:34 53° SW 06:28:57 10° SSE visible
12 Dec - 20:59:20 10° SSE 21:01:57 15° ESE 21:04:30 10° ENE night (unlit)
12 Dec - 22:38:54 10° SW 22:43:19 81° SE 22:47:36 10° NE night (unlit)
13 Dec - 00:21:55 10° W 00:25:45 29° NNW 00:29:32 10° NE night (unlit)
13 Dec - 02:05:52 10° NW 02:08:58 19° N 02:12:07 10° NE night (unlit)
13 Dec - 03:48:32 10° NW 03:52:15 28° NNE 03:56:02 10° E visible
13 Dec - 05:30:26 10° NW 05:34:45 90° NE 05:39:15 10° SE visible
13 Dec - 07:13:15 10° WNW 07:16:13 18° WSW 07:19:18 10° SSW visible
13 Dec - 21:49:19 10° SSW 21:53:32 45° SE 21:57:38 10° NE night (unlit)
13 Dec - 23:31:27 10° WSW 23:35:36 41° NW 23:39:41 10° NE night (unlit)
14 Dec - 01:15:23 10° WNW 01:18:37 20° N 01:21:52 10° NE night (unlit)
14 Dec - 02:58:34 10° NW 03:01:59 22° NNE 03:05:26 10° ENE visible
14 Dec - 04:40:35 10° NW 04:44:49 55° NE 04:49:12 10° ESE visible
14 Dec - 06:22:48 10° WNW 06:26:39 32° WSW 06:30:40 10° S visible
14 Dec - 21:00:13 10° S 21:03:53 26° ESE 21:07:27 10° ENE night (unlit)
14 Dec - 22:41:13 10° SW 22:45:35 65° NW 22:49:50 10° NE night (unlit)
15 Dec - 00:24:48 10° WNW 00:28:18 24° NNW 00:31:49 10° NE night (unlit)
15 Dec - 02:08:29 10° NW 02:11:39 20° N 02:14:52 10° NE night (unlit)
15 Dec - 03:50:45 10° NW 03:54:45 37° NNE 03:58:52 10° E visible
15 Dec - 05:32:43 10° NW 05:36:57 56° SW 05:41:22 10° SSE visible
15 Dec - 07:17:18 10° W 07:18:05 10° WSW 07:18:54 10° WSW visible
15 Dec - 20:11:59 10° SE 20:14:22 14° ESE 20:16:42 10° ENE night (unlit)
15 Dec - 21:51:17 10° SW 21:55:41 76° SE 21:59:57 10° NE night (unlit)
15 Dec - 23:34:14 10° W 23:38:05 30° NNW 23:41:53 10° NE night (unlit)
